• In Belarus
  • List of Countries
  • For 7 days
  • Water Temperature
  • Satellite Maps
  • Weather Map
  • Weather Widgets
  • user-avatar
    Login

    Hourly Weather Kyrdzhali

    Today, 23 October, Tuesday

    Time Temperature Precipitation Wind Pressure Humidity
    00:00 +10°C° 0 mm 2 mps 730 mmHg 79%
    01:00 +10°C° 0 mm 2 mps 730 mmHg 81%
    02:00 +9°C° 0 mm 2 mps 729 mmHg 82%
    03:00 +9°C° 0 mm 2 mps 729 mmHg 81%
    04:00 +9°C° 0 mm 2 mps 729 mmHg 81%
    05:00 +9°C° 0 mm 2 mps 729 mmHg 80%
    06:00 +9°C° 0 mm 2 mps 729 mmHg 77%
    07:00 +10°C° 0 mm 2 mps 729 mmHg 73%
    08:00 +11°C° 0 mm 3 mps 729 mmHg 68%
    09:00 +12°C° 0 mm 3 mps 729 mmHg 61%
    10:00 +13°C° 0 mm 3 mps 729 mmHg 55%
    11:00 +16°C° 0 mm 3 mps 730 mmHg 48%
    12:00 +17°C° 0 mm 3 mps 729 mmHg 46%
    13:00 +17°C° 0 mm 3 mps 729 mmHg 44%
    14:00 +17°C° 0 mm 3 mps 728 mmHg 47%
    15:00 +16°C° 0 mm 2 mps 728 mmHg 50%
    16:00 +16°C° 0 mm 2 mps 727 mmHg 52%
    17:00 +15°C° 0 mm 1 mps 727 mmHg 55%
    18:00 +15°C° 0 mm 1 mps 727 mmHg 57%
    19:00 +14°C° 0 mm 1 mps 726 mmHg 60%
    20:00 +13°C° 0 mm 1 mps 726 mmHg 62%
    21:00 +12°C° 0 mm 1 mps 726 mmHg 64%
    22:00 +12°C° 0 mm 1 mps 726 mmHg 65%
    23:00 +12°C° 0 mm 1 mps 725 mmHg 67%

    Tomorrow, 24 October, Wednesday

    Time Temperature Precipitation Wind Pressure Humidity
    00:00 +11°C° 0 mm 1 mps 725 mmHg 68%
    01:00 +11°C° 0 mm 1 mps 725 mmHg 69%
    02:00 +11°C° 0 mm 1 mps 724 mmHg 70%
    03:00 +11°C° 0 mm 1 mps 724 mmHg 70%
    04:00 +11°C° 0 mm 1 mps 723 mmHg 71%
    05:00 +10°C° 0 mm 1 mps 722 mmHg 71%
    06:00 +11°C° 0 mm 1 mps 722 mmHg 68%
    07:00 +12°C° 0 mm 1 mps 722 mmHg 65%
    08:00 +12°C° 0 mm 1 mps 722 mmHg 63%
    09:00 +14°C° 0 mm 2 mps 722 mmHg 55%
    10:00 +17°C° 0 mm 2 mps 721 mmHg 47%
    11:00 +19°C° 0 mm 3 mps 721 mmHg 40%
    12:00 +19°C° 0 mm 3 mps 721 mmHg 38%
    13:00 +20°C° 0 mm 3 mps 720 mmHg 37%
    14:00 +21°C° 0 mm 4 mps 719 mmHg 35%
    15:00 +20°C° 0 mm 4 mps 719 mmHg 39%
    16:00 +19°C° 0 mm 3 mps 718 mmHg 42%
    17:00 +18°C° 0 mm 3 mps 718 mmHg 46%
    18:00 +17°C° 0 mm 3 mps 718 mmHg 49%
    19:00 +14°C° 0 mm 3 mps 718 mmHg 53%
    20:00 +13°C° 0 mm 3 mps 718 mmHg 57%
    21:00 +13°C° 0.1 mm 4 mps 719 mmHg 57%
    22:00 +12°C° 0.1 mm 5 mps 720 mmHg 58%
    23:00 +11°C° 0.1 mm 6 mps 720 mmHg 58%

    Day after tomorrow, 25 October, Thursday

    Time Temperature Precipitation Wind Pressure Humidity
    00:00 +10°C° 0 mm 6 mps 721 mmHg 56%
    01:00 +8°C° 0 mm 6 mps 721 mmHg 54%
    02:00 +7°C° 0 mm 6 mps 722 mmHg 53%
    03:00 +5°C° 0 mm 6 mps 722 mmHg 52%
    04:00 +5°C° 0 mm 5 mps 723 mmHg 52%
    05:00 +5°C° 0 mm 5 mps 723 mmHg 52%
    06:00 +5°C° 0 mm 5 mps 724 mmHg 48%
    07:00 +5°C° 0 mm 5 mps 725 mmHg 44%
    08:00 +5°C° 0 mm 5 mps 725 mmHg 41%
    09:00 +7°C° 0 mm 5 mps 726 mmHg 35%
    10:00 +8°C° 0 mm 5 mps 726 mmHg 30%
    11:00 +10°C° 0 mm 5 mps 727 mmHg 25%
    12:00 +12°C° 0 mm 5 mps 727 mmHg 23%
    13:00 +12°C° 0 mm 5 mps 726 mmHg 22%
    14:00 +13°C° 0 mm 4 mps 726 mmHg 21%
    15:00 +12°C° 0 mm 4 mps 726 mmHg 23%
    16:00 +12°C° 0 mm 3 mps 726 mmHg 26%
    17:00 +12°C° 0 mm 2 mps 726 mmHg 29%
    18:00 +10°C° 0 mm 2 mps 726 mmHg 31%
    19:00 +9°C° 0 mm 2 mps 727 mmHg 34%
    20:00 +8°C° 0 mm 2 mps 727 mmHg 37%
    21:00 +8°C° 0 mm 2 mps 727 mmHg 39%
    22:00 +8°C° 0 mm 2 mps 727 mmHg 42%
    23:00 +8°C° 0 mm 2 mps 727 mmHg 44%

    26 October, Friday

    Time Temperature Precipitation Wind Pressure Humidity
    00:00 +8°C° 0 mm 2 mps 727 mmHg 47%
    01:00 +8°C° 0 mm 2 mps 727 mmHg 50%
    02:00 +8°C° 0 mm 2 mps 727 mmHg 53%
    03:00 +8°C° 0 mm 2 mps 727 mmHg 55%
    04:00 +8°C° 0 mm 2 mps 727 mmHg 56%
    05:00 +8°C° 0 mm 2 mps 727 mmHg 58%
    06:00 +9°C° 0 mm 2 mps 727 mmHg 56%
    07:00 +10°C° 0 mm 2 mps 727 mmHg 54%
    08:00 +12°C° 0 mm 2 mps 727 mmHg 53%
    09:00 +14°C° 0 mm 2 mps 728 mmHg 47%
    10:00 +16°C° 0 mm 2 mps 728 mmHg 41%
    11:00 +19°C° 0 mm 2 mps 728 mmHg 35%
    12:00 +19°C° 0 mm 3 mps 728 mmHg 34%
    13:00 +20°C° 0 mm 3 mps 728 mmHg 33%
    14:00 +20°C° 0 mm 3 mps 728 mmHg 33%
    15:00 +19°C° 0 mm 3 mps 728 mmHg 37%
    16:00 +18°C° 0 mm 3 mps 727 mmHg 42%
    17:00 +16°C° 0 mm 2 mps 727 mmHg 46%
    18:00 +15°C° 0 mm 2 mps 727 mmHg 50%
    19:00 +14°C° 0 mm 2 mps 728 mmHg 55%
    20:00 +12°C° 0 mm 3 mps 728 mmHg 59%
    21:00 +13°C° 0 mm 2 mps 728 mmHg 61%
    22:00 +12°C° 0 mm 2 mps 728 mmHg 62%
    23:00 +12°C° 0 mm 2 mps 728 mmHg 64%

    27 October, Saturday

    Time Temperature Precipitation Wind Pressure Humidity
    00:00 +12°C° 0 mm 2 mps 728 mmHg 65%
    01:00 +12°C° 0 mm 2 mps 728 mmHg 66%
    02:00 +12°C° 0 mm 2 mps 728 mmHg 68%
    03:00 +10°C° 0 mm 2 mps 728 mmHg 69%
    04:00 +10°C° 0 mm 2 mps 727 mmHg 70%
    05:00 +10°C° 0 mm 2 mps 727 mmHg 71%
    06:00 +12°C° 0 mm 2 mps 727 mmHg 70%
    07:00 +13°C° 0 mm 2 mps 728 mmHg 69%
    08:00 +13°C° 0 mm 2 mps 728 mmHg 68%
    09:00 +15°C° 0 mm 2 mps 728 mmHg 62%
    10:00 +18°C° 0 mm 3 mps 728 mmHg 57%
    11:00 +20°C° 0 mm 4 mps 728 mmHg 51%
    12:00 +21°C° 0 mm 4 mps 728 mmHg 50%
    13:00 +21°C° 0 mm 5 mps 728 mmHg 49%
    14:00 +22°C° 0 mm 5 mps 727 mmHg 48%
    15:00 +21°C° 0 mm 5 mps 727 mmHg 54%
    16:00 +20°C° 0 mm 4 mps 727 mmHg 60%
    17:00 +18°C° 0 mm 4 mps 727 mmHg 66%
    18:00 +17°C° 0 mm 4 mps 727 mmHg 71%
    19:00 +15°C° 0 mm 4 mps 727 mmHg 76%
    20:00 +14°C° 0 mm 3 mps 727 mmHg 80%
    21:00 +14°C° 0 mm 3 mps 727 mmHg 80%
    22:00 +14°C° 0 mm 3 mps 728 mmHg 80%
    23:00 +14°C° 0 mm 3 mps 728 mmHg 80%

    28 October, Sunday

    Time Temperature Precipitation Wind Pressure Humidity
    00:00 +14°C° 0 mm 3 mps 728 mmHg 81%
    01:00 +14°C° 0 mm 3 mps 728 mmHg 81%
    02:00 +14°C° 0 mm 2 mps 728 mmHg 82%
    03:00 +14°C° 0 mm 2 mps 728 mmHg 83%
    04:00 +14°C° 0 mm 2 mps 728 mmHg 84%
    05:00 +14°C° 0 mm 2 mps 728 mmHg 85%
    06:00 +15°C° 0 mm 2 mps 728 mmHg 83%
    07:00 +15°C° 0 mm 2 mps 728 mmHg 82%
    08:00 +16°C° 0 mm 2 mps 729 mmHg 81%
    09:00 +17°C° 0 mm 3 mps 729 mmHg 75%
    10:00 +19°C° 0 mm 4 mps 729 mmHg 69%
    11:00 +21°C° 0 mm 5 mps 729 mmHg 63%
    12:00 +21°C° 0 mm 5 mps 729 mmHg 62%
    13:00 +22°C° 0 mm 5 mps 729 mmHg 61%
    14:00 +22°C° 0 mm 5 mps 728 mmHg 61%
    15:00 +21°C° 0 mm 5 mps 728 mmHg 65%
    16:00 +20°C° 0 mm 5 mps 728 mmHg 70%
    17:00 +19°C° 0 mm 4 mps 728 mmHg 75%
    18:00 +18°C° 0 mm 4 mps 728 mmHg 79%
    19:00 +17°C° 0 mm 4 mps 728 mmHg 82%
    20:00 +15°C° 0 mm 4 mps 728 mmHg 86%
    21:00 +16°C° 0 mm 3 mps 728 mmHg 86%
    22:00 +16°C° 0 mm 3 mps 729 mmHg 87%
    23:00 +14°C° 0 mm 3 mps 729 mmHg 87%

    29 October, Monday

    Time Temperature Precipitation Wind Pressure Humidity
    00:00 +14°C° 0 mm 3 mps 729 mmHg 88%
    01:00 +14°C° 0 mm 3 mps 728 mmHg 89%
    02:00 +14°C° 0 mm 3 mps 728 mmHg 89%
    03:00 +13°C° 0 mm 3 mps 728 mmHg 90%
    04:00 +13°C° 0 mm 3 mps 728 mmHg 90%
    05:00 +13°C° 0 mm 3 mps 728 mmHg 91%
    06:00 +13°C° 0 mm 3 mps 728 mmHg 88%
    07:00 +14°C° 0 mm 3 mps 728 mmHg 86%
    08:00 +14°C° 0 mm 3 mps 729 mmHg 84%
    09:00 +17°C° 0 mm 4 mps 729 mmHg 76%
    10:00 +19°C° 0 mm 4 mps 729 mmHg 67%
    11:00 +20°C° 0 mm 5 mps 729 mmHg 59%
    12:00 +21°C° 0 mm 5 mps 729 mmHg 57%
    13:00 +21°C° 0 mm 5 mps 728 mmHg 55%
    14:00 +22°C° 0 mm 5 mps 728 mmHg 53%
    15:00 +20°C° 0 mm 4 mps 728 mmHg 58%
    16:00 +19°C° 0 mm 4 mps 728 mmHg 64%
    17:00 +18°C° 0 mm 3 mps 728 mmHg 69%
    18:00 +18°C° 0 mm 3 mps 728 mmHg 73%
    19:00 +17°C° 0 mm 3 mps 728 mmHg 78%
    20:00 +16°C° 0 mm 3 mps 728 mmHg 82%
    21:00 +16°C° 0 mm 3 mps 728 mmHg 82%
    22:00 +16°C° 0 mm 3 mps 728 mmHg 83%
    23:00 +14°C° 0 mm 3 mps 728 mmHg 83%
    Show more